User: anonymous   Login
Location: Bogis-Bossey
(46.3500°N, 6.1667°E)
Time: 00:54:57
(UTC+00:00)
Language:

Cosmos 1378 - Orbit

View from above orbital plane
View from above orbital plane
View from above satellite
View from above satellite

Ground track
Ground track

The orbit data is extracted from the following two-line orbital elements,

1 13271U 82059A   22334.52474619  .00004800  00000-0  17246-3 0  9995
2 13271  82.4635  11.6255 0007195 146.5639 213.6056 15.28378738213023
Epoch (UTC): 30 November 2022 12:35:38
Eccentricity: 0.0007195
inclination: 82.4635°
perigee height: 476 km
apogee height: 485 km
right ascension of ascending node: 11.6255°
argument of perigee: 146.5639°
revolutions per day: 15.28378738
mean anomaly at epoch: 213.6056°
orbit number at epoch: 21302

The dashed part of the orbit path shows where the satellite is in the earth's shadow,  

DLR